Find Starlink 32588

NORAD ID: 61866 Int'l Des: 2024-202 Owner: SPXS Country: US Constellation: starlink operational
LEOCIRCULAR

当前视图

正在加载3D地球...

About Starlink 32588

Starlink 32588 (NORAD 61866) is a starlink constellation satellite (v2 mini) launched Nov 7, 2024 by SPXS of US. It operates in LEO, CIRCULAR orbit with a mass of 730.00 kg.

关于 Starlink 32588

正在加载描述...

即将过境

Passes for default location (London). Set your location on the main map for personalized predictions.

高度历史

Loading altitude history...

两行轨道根数

1 61866U 24202X 26194.61810235 .00001287 00000-0 56297-4 0 9996
2 61866 43.0011 247.0838 0001681 293.5071 66.5604 15.27583568 94597
Epoch: Jul 13, 2026 • Age: 25 hours

当前状态

高度 493.6 km
远地点 / 近地点 N/A
速度 7.62 km/s
星下点 -38.10°S, 46.06°W
发射日期 Nov 7, 2024
运行时间 1.6 years
类型 internet

技术详情

分类 Payload
质量 730.00 kg
干质量 700.00 kg
总质量 730.00 kg
长度 0.30 m
直径 4.10 m
跨度 29.00 m
形状 Box + pan
制造商 SPXS
平台类型 Starlink V2M
阶段状态 In Orbit
所有者/国家 SPXS/US

Most Searched